Avoca, PA

5:11 AM EST on December 09, 2019 (GMT -0500)
Wilkes-Barre-Scranton International

Weather History for KAVP - November, 2019

Change the Weather History Date:

Thursday, November 14, 2019

  Actual Average Record
Temperature  
Mean Temperature 30 °F 42 °F  
Max Temperature 37 °F 50 °F 71 °F (1989)
Min Temperature 23 °F 34 °F 14 °F (1986)
Degree Days  
Heating Degree Days 35 23  
Month to date heating degree days 293  
Since 1 July heating degree days 896  
Cooling Degree Days 0 0  
Month to date cooling degree days 0  
Year to date cooling degree days 580  
Moisture  
Dew Point 14 °F    
Average Humidity 48    
Maximum Humidity 58    
Minimum Humidity 41    
Precipitation  
Precipitation 0.00 in 0.10 in 1.75 in (1972)
Month to date precipitation 1.42  
Year to date precipitation 33.86  
Sea Level Pressure  
Sea Level Pressure 30.32 in    
Wind  
Wind Speed 3 mph ()    
Max Wind Speed 9 mph    
Max Gust Speed 16 mph    
Visibility 9.9 miles    
Events      
T = Trace of Precipitation, MM = Missing Value Source: Averaged Metar Reports

Daily Weather History Graph

Daily Weather History Graph

Search for Another Location

Airport or City:

Astronomy

Nov. 14, 2019 Rise Set
Actual Time 6:49 AM EST 4:44 PM EST
Civil Twilight 6:20 AM EST 5:14 PM EST
Nautical Twilight 5:46 AM EST 5:47 PM EST
Astronomical Twilight 5:14 AM EST 6:19 PM EST
Moon 6:27 PM EST (11/14) 8:43 AM EST (11/14)
Length of Visible Light 10h 53m
Length of Day
9h 54m
Waning Gibbous, 95% of the Moon is Illuminated
Nov 14
Waning Gibbous
Nov 19
Last Quarter
Nov 26
New
Dec 4
First Quarter
Dec 12
Full

Hourly Weather History & Observations

Time (EST) Temp. Windchill Dew Point Humidity Pressure Visibility Wind Dir Wind Speed Gust Speed Precip Events Conditions
12:54 AM 23.0 °F - 10.0 °F 58% 30.38 in 10.0 mi Calm Calm - N/A   Clear
1:54 AM 25.0 °F 20.7 °F 8.1 °F 49% 30.36 in 10.0 mi Variable 3.5 mph - N/A   Clear
2:54 AM 26.1 °F - 9.0 °F 49% 30.36 in 10.0 mi Calm Calm - N/A   Clear
3:54 AM 26.1 °F - 8.1 °F 47% 30.35 in 10.0 mi Calm Calm - N/A   Clear
4:54 AM 26.1 °F - 8.1 °F 47% 30.35 in 10.0 mi Calm Calm - N/A   Clear
5:54 AM 27.0 °F 20.5 °F 9.0 °F 47% 30.36 in 10.0 mi SSW 5.8 mph - N/A   Clear
6:54 AM 27.0 °F 18.0 °F 10.0 °F 49% 30.38 in 10.0 mi SW 9.2 mph - N/A   Clear
7:54 AM 28.0 °F 20.0 °F 10.9 °F 49% 30.36 in 10.0 mi SW 8.1 mph 16.1 mph N/A   Clear
8:54 AM 28.0 °F 22.8 °F 12.0 °F 51% 30.36 in 10.0 mi Variable 4.6 mph - N/A   Clear
9:54 AM 30.0 °F 24.1 °F 14.0 °F 51% 30.36 in 10.0 mi SSW 5.8 mph - N/A   Mostly Cloudy
10:54 AM 32.0 °F 25.6 °F 14.0 °F 48% 30.35 in 10.0 mi South 6.9 mph - N/A   Overcast
11:54 AM 34.0 °F 27.2 °F 12.9 °F 42% 30.32 in 10.0 mi South 8.1 mph - N/A   Overcast
12:54 PM 36.0 °F 29.6 °F 15.1 °F 43% 30.30 in 10.0 mi SSW 8.1 mph - N/A   Overcast
1:54 PM 36.0 °F 31.1 °F 15.1 °F 43% 30.30 in 10.0 mi Variable 5.8 mph - N/A   Mostly Cloudy
2:54 PM 37.9 °F 32.1 °F 16.0 °F 41% 30.27 in 10.0 mi South 8.1 mph - N/A   Clear
3:54 PM 37.9 °F 34.4 °F 16.0 °F 41% 30.27 in 10.0 mi South 4.6 mph - N/A   Clear
4:54 PM 36.0 °F 30.3 °F 17.1 °F 46% 30.27 in 10.0 mi SSW 6.9 mph - N/A   Clear
5:54 PM 36.0 °F 32.1 °F 19.0 °F 50% 30.28 in 10.0 mi Variable 4.6 mph - N/A   Clear
6:54 PM 36.0 °F 30.3 °F 18.0 °F 48% 30.28 in 10.0 mi SW 6.9 mph - N/A   Partly Cloudy
7:54 PM 36.0 °F 32.1 °F 17.1 °F 46% 30.27 in 10.0 mi SSW 4.6 mph - N/A   Overcast
8:54 PM 36.0 °F 29.6 °F 17.1 °F 46% 30.27 in 10.0 mi SW 8.1 mph - N/A   Overcast
9:54 PM 34.0 °F - 18.0 °F 52% 30.28 in 10.0 mi Calm Calm - N/A   Clear
10:54 PM 30.9 °F - 17.1 °F 57% 30.28 in 8.0 mi Calm Calm - N/A   Clear
11:54 PM 30.0 °F 26.5 °F 16.0 °F 56% 30.26 in 10.0 mi SSE 3.5 mph - N/A   Clear